QPF
0.00 0.00 0.01 0.01 0.01 0.01 0.01 0.01 0.01 0.01 0.01 0.01 0.01 0.01 0.01 0.00 0.00 0.00 0.01 0.01 0.01 0.01 0.01 0.01 0.02 0.02 0.02 0.03 0.02 0.01 0.01 0.00 0.00 0.01 0.01 0.01 0.00 0.00 0.00 0.00 0.00 0.00 0.00
0.00 0.00 0.01 0.01 0.01 0.01 0.01 0.01 0.01 0.01 0.01 0.01 0.02 0.01 0.01 0.00 0.00 0.00 0.01 0.01 0.01 0.01 0.01 0.01 0.01 0.01 0.03 0.03 0.01 0.00 0.00 0.00 0.00 0.00 0.00 0.00 0.00 0.00 0.00 0.00 0.00 0.00 0.00
0.00 0.00 0.01 0.01 0.02 0.01 0.01 0.01 0.01 0.01 0.01 0.02 0.02 0.02 0.01 0.00 0.00 0.00 0.01 0.01 0.01 0.01 0.01 0.01 0.01 0.02 0.02 0.01 0.01 0.01 0.00 0.00 0.00 0.00 0.00 0.00 0.00 0.00 0.00 0.00 0.00 0.00 0.01
0.00 0.00 0.01 0.02 0.02 0.02 0.02 0.01 0.01 0.01 0.01 0.02 0.02 0.03 0.03 0.01 0.01 0.00 0.01 0.01 0.01 0.01 0.01 0.01 0.01 0.01 0.01 0.01 0.01 0.01 0.02 0.01 0.01 0.00 0.00 0.00 0.00 0.00 0.00 0.00 0.00 0.00 0.01
0.02 0.01 0.01 0.02 0.02 0.02 0.02 0.02 0.01 0.01 0.01 0.02 0.03 0.03 0.04 0.03 0.02 0.01 0.01 0.01 0.01 0.01 0.01 0.01 0.00 0.00 0.01 0.01 0.01 0.01 0.01 0.02 0.01 0.00 0.00 0.00 0.00 0.00 0.00 0.01 0.01 0.01 0.01
0.03 0.02 0.02 0.03 0.03 0.03 0.03 0.03 0.02 0.02 0.01 0.02 0.04 0.04 0.04 0.04 0.04 0.03 0.02 0.02 0.02 0.01 0.01 0.01 0.01 0.00 0.00 0.00 0.01 0.01 0.01 0.01 0.01 0.01 0.01 0.00 0.00 0.00 0.00 0.01 0.00 0.01 0.01
0.02 0.02 0.02 0.03 0.03 0.03 0.03 0.04 0.03 0.03 0.02 0.02 0.03 0.05 0.04 0.04 0.04 0.03 0.02 0.02 0.02 0.01 0.01 0.01 0.01 0.01 0.00 0.00 0.00 0.01 0.01 0.01 0.00 0.00 0.00 0.00 0.00 0.00 0.01 0.01 0.01 0.01 0.01
0.02 0.03 0.04 0.05 0.04 0.03 0.02 0.02 0.03 0.03 0.03 0.02 0.02 0.04 0.05 0.05 0.04 0.03 0.02 0.02 0.02 0.02 0.02 0.01 0.01 0.01 0.01 0.00 0.00 0.00 0.00 0.00 0.00 0.00 0.00 0.00 0.00 0.00 0.01 0.02 0.02 0.02 0.02
0.03 0.04 0.05 0.06 0.05 0.04 0.02 0.01 0.02 0.03 0.03 0.02 0.01 0.02 0.02 0.03 0.04 0.03 0.02 0.02 0.01 0.01 0.02 0.01 0.01 0.01 0.01 0.01 0.01 0.00 0.00 0.00 0.00 0.01 0.00 0.00 0.00 0.01 0.01 0.02 0.03 0.03 0.04
0.05 0.06 0.05 0.05 0.04 0.04 0.03 0.01 0.01 0.03 0.04 0.03 0.02 0.01 0.01 0.01 0.02 0.02 0.02 0.01 0.01 0.01 0.01 0.01 0.01 0.01 0.01 0.01 0.00 0.00 0.00 0.00 0.00 0.00 0.01 0.00 0.00 0.00 0.01 0.02 0.02 0.03 0.04
0.06 0.07 0.07 0.06 0.04 0.04 0.03 0.01 0.01 0.01 0.03 0.04 0.02 0.02 0.01 0.01 0.01 0.01 0.01 0.01 0.01 0.01 0.01 0.01 0.01 0.01 0.01 0.00 0.00 0.00 0.00 0.00 0.00 0.00 0.00 0.00 0.00 0.00 0.01 0.02 0.02 0.02 0.03
0.07 0.07 0.07 0.06 0.05 0.05 0.04 0.02 0.01 0.01 0.01 0.02 0.02 0.02 0.02 0.01 0.01 0.01 0.01 0.01 0.01 0.02 0.01 0.01 0.01 0.01 0.00 0.00 0.00 0.00 0.00 0.00 0.00 0.00 0.00 0.00 0.00 0.01 0.01 0.01 0.01 0.01 0.02
0.08 0.05 0.06 0.06 0.06 0.06 0.06 0.04 0.02 0.01 0.01 0.01 0.02 0.03 0.02 0.01 0.01 0.01 0.01 0.01 0.01 0.01 0.01 0.01 0.01 0.01 0.00 0.00 0.00 0.00 0.00 0.00 0.00 0.00 0.00 0.00 0.01 0.02 0.01 0.01 0.01 0.01 0.01
0.12 0.08 0.06 0.06 0.07 0.08 0.08 0.06 0.04 0.02 0.01 0.01 0.01 0.02 0.04 0.02 0.01 0.01 0.01 0.01 0.01 0.01 0.01 0.01 0.01 0.01 0.00 0.00 0.00 0.00 0.00 0.00 0.00 0.00 0.00 0.01 0.01 0.02 0.03 0.03 0.02 0.02 0.01
0.14 0.10 0.07 0.06 0.07 0.08 0.08 0.07 0.05 0.03 0.02 0.02 0.02 0.02 0.05 0.05 0.03 0.02 0.02 0.02 0.01 0.01 0.01 0.01 0.01 0.00 0.00 0.00 0.00 0.00 0.00 0.00 0.00 0.01 0.01 0.01 0.01 0.01 0.03 0.03 0.04 0.03 0.03
0.12 0.12 0.09 0.06 0.07 0.07 0.08 0.07 0.06 0.04 0.04 0.04 0.03 0.02 0.02 0.04 0.05 0.03 0.03 0.04 0.03 0.01 0.01 0.01 0.01 0.00 0.00 0.00 0.00 0.00 0.00 0.00 0.00 0.00 0.01 0.01 0.01 0.00 0.01 0.03 0.04 0.05 0.06
0.09 0.12 0.10 0.08 0.06 0.07 0.09 0.10 0.08 0.05 0.04 0.04 0.05 0.03 0.03 0.05 0.05 0.04 0.03 0.03 0.03 0.02 0.01 0.01 0.01 0.00 0.00 0.00 0.00 0.00 0.00 0.00 0.00 0.00 0.00 0.01 0.00 0.00 0.00 0.01 0.03 0.03 0.04
0.07 0.10 0.09 0.08 0.07 0.07 0.08 0.09 0.09 0.08 0.04 0.05 0.06 0.06 0.05 0.06 0.07 0.06 0.04 0.02 0.02 0.02 0.02 0.01 0.01 0.00 0.00 0.00 0.00 0.00 0.00 0.00 0.00 0.00 0.00 0.00 0.00 0.00 0.00 0.01 0.01 0.02 0.03
0.04 0.05 0.06 0.05 0.05 0.05 0.05 0.06 0.07 0.07 0.06 0.05 0.06 0.07 0.06 0.06 0.07 0.07 0.06 0.04 0.03 0.02 0.01 0.01 0.01 0.00 0.00 0.00 0.00 0.00 0.00 0.00 0.00 0.00 0.00 0.00 0.00 0.01 0.01 0.01 0.02 0.02 0.03
0.03 0.03 0.03 0.02 0.02 0.02 0.02 0.03 0.06 0.07 0.05 0.05 0.06 0.06 0.06 0.06 0.08 0.07 0.05 0.04 0.04 0.04 0.02 0.01 0.01 0.00 0.00 0.00 0.00 0.00 0.00 0.00 0.00 0.00 0.00 0.01 0.01 0.01 0.01 0.02 0.02 0.02 0.02
0.03 0.02 0.02 0.02 0.02 0.02 0.02 0.02 0.03 0.05 0.05 0.04 0.06 0.07 0.07 0.07 0.08 0.08 0.06 0.04 0.04 0.04 0.04 0.02 0.01 0.01 0.00 0.00 0.00 0.00 0.00 0.00 0.00 0.00 0.00 0.00 0.01 0.01 0.01 0.02 0.02 0.02 0.02
0.03 0.03 0.02 0.03 0.03 0.04 0.04 0.02 0.02 0.02 0.04 0.04 0.04 0.05 0.07 0.06 0.07 0.10 0.08 0.05 0.04 0.04 0.05 0.04 0.03 0.02 0.01 0.01 0.00 0.00 0.00 0.00 0.00 0.00 0.00 0.00 0.01 0.01 0.01 0.02 0.03 0.04 0.04
0.03 0.03 0.02 0.03 0.04 0.05 0.07 0.06 0.04 0.03 0.02 0.04 0.06 0.06 0.07 0.07 0.07 0.10 0.11 0.07 0.04 0.04 0.05 0.04 0.03 0.02 0.01 0.01 0.01 0.01 0.00 0.01 0.00 0.00 0.00 0.00 0.00 0.00 0.01 0.01 0.02 0.02 0.03
0.01 0.01 0.01 0.02 0.02 0.04 0.04 0.07 0.08 0.07 0.04 0.02 0.03 0.05 0.07 0.08 0.08 0.10 0.12 0.09 0.06 0.05 0.05 0.05 0.03 0.02 0.01 0.01 0.01 0.00 0.01 0.01 0.01 0.00 0.00 0.00 0.01 0.01 0.01 0.01 0.02 0.02 0.02
0.01 0.01 0.01 0.01 0.01 0.02 0.02 0.03 0.05 0.08 0.09 0.07 0.04 0.03 0.04 0.06 0.08 0.09 0.12 0.12 0.09 0.07 0.06 0.06 0.04 0.02 0.01 0.01 0.01 0.01 0.01 0.01 0.01 0.01 0.01 0.00 0.01 0.01 0.01 0.01 0.01 0.01 0.02
0.00 0.01 0.01 0.01 0.01 0.01 0.01 0.01 0.02 0.03 0.07 0.09 0.07 0.05 0.04 0.04 0.05 0.06 0.09 0.12 0.12 0.10 0.08 0.07 0.06 0.04 0.02 0.01 0.00 0.00 0.00 0.00 0.00 0.00 0.01 0.01 0.01 0.01 0.01 0.01 0.01 0.01 0.01
MSLP
1018.89 1018.98 1019.04 1019.09 1019.14 1019.18 1019.20 1019.17 1019.08 1018.93 1018.72 1018.48 1018.23 1018.00 1017.80 1017.65 1017.53 1017.44 1017.33 1017.21 1017.05 1016.85 1016.63 1016.39 1016.15 1015.93 1015.71 1015.51 1015.33 1015.14 1014.97 1014.82 1014.68 1014.57 1014.50 1014.47 1014.47 1014.49 1014.52 1014.53 1014.53 1014.51 1014.48
1018.98 1019.07 1019.13 1019.17 1019.21 1019.24 1019.25 1019.22 1019.13 1018.98 1018.78 1018.55 1018.33 1018.12 1017.95 1017.82 1017.72 1017.62 1017.52 1017.39 1017.22 1017.03 1016.81 1016.58 1016.35 1016.13 1015.92 1015.71 1015.50 1015.28 1015.06 1014.84 1014.65 1014.49 1014.38 1014.32 1014.30 1014.32 1014.35 1014.38 1014.40 1014.39 1014.37
1019.16 1019.25 1019.29 1019.31 1019.33 1019.33 1019.32 1019.27 1019.18 1019.04 1018.87 1018.67 1018.48 1018.30 1018.16 1018.04 1017.94 1017.84 1017.71 1017.56 1017.37 1017.16 1016.93 1016.71 1016.50 1016.30 1016.10 1015.89 1015.67 1015.42 1015.15 1014.88 1014.62 1014.40 1014.24 1014.14 1014.10 1014.11 1014.13 1014.17 1014.19 1014.20 1014.20
1019.43 1019.51 1019.53 1019.53 1019.51 1019.49 1019.44 1019.38 1019.28 1019.15 1019.00 1018.83 1018.68 1018.53 1018.41 1018.30 1018.19 1018.05 1017.89 1017.70 1017.48 1017.24 1017.01 1016.80 1016.60 1016.42 1016.24 1016.05 1015.81 1015.54 1015.24 1014.92 1014.61 1014.34 1014.13 1013.98 1013.90 1013.88 1013.89 1013.92 1013.94 1013.96 1013.97
1019.75 1019.82 1019.83 1019.80 1019.76 1019.70 1019.63 1019.54 1019.44 1019.31 1019.17 1019.04 1018.91 1018.79 1018.68 1018.56 1018.43 1018.26 1018.06 1017.82 1017.56 1017.30 1017.06 1016.84 1016.66 1016.50 1016.34 1016.16 1015.93 1015.65 1015.33 1014.97 1014.62 1014.30 1014.04 1013.84 1013.72 1013.66 1013.64 1013.65 1013.67 1013.69 1013.70
1020.08 1020.15 1020.15 1020.11 1020.05 1019.97 1019.87 1019.77 1019.65 1019.52 1019.39 1019.26 1019.15 1019.04 1018.94 1018.81 1018.66 1018.46 1018.22 1017.94 1017.65 1017.36 1017.10 1016.88 1016.70 1016.55 1016.40 1016.23 1016.01 1015.73 1015.39 1015.02 1014.64 1014.28 1013.98 1013.74 1013.57 1013.46 1013.41 1013.39 1013.39 1013.40 1013.41
1020.38 1020.44 1020.45 1020.41 1020.34 1020.25 1020.14 1020.02 1019.89 1019.75 1019.62 1019.49 1019.38 1019.28 1019.17 1019.04 1018.87 1018.65 1018.38 1018.08 1017.76 1017.45 1017.17 1016.94 1016.75 1016.60 1016.45 1016.27 1016.05 1015.77 1015.43 1015.05 1014.66 1014.28 1013.94 1013.67 1013.45 1013.30 1013.20 1013.14 1013.11 1013.10 1013.10
1020.59 1020.66 1020.68 1020.65 1020.60 1020.52 1020.41 1020.28 1020.14 1019.99 1019.85 1019.71 1019.59 1019.48 1019.37 1019.23 1019.05 1018.83 1018.56 1018.25 1017.92 1017.59 1017.30 1017.04 1016.83 1016.65 1016.48 1016.28 1016.05 1015.76 1015.42 1015.05 1014.66 1014.28 1013.93 1013.63 1013.37 1013.17 1013.02 1012.92 1012.84 1012.80 1012.79
1020.71 1020.80 1020.83 1020.83 1020.80 1020.74 1020.64 1020.52 1020.38 1020.22 1020.06 1019.91 1019.77 1019.65 1019.53 1019.39 1019.22 1019.01 1018.74 1018.44 1018.11 1017.78 1017.47 1017.19 1016.94 1016.72 1016.50 1016.27 1016.02 1015.73 1015.39 1015.03 1014.65 1014.28 1013.93 1013.61 1013.33 1013.09 1012.89 1012.73 1012.61 1012.52 1012.48
1020.74 1020.84 1020.90 1020.93 1020.93 1020.90 1020.83 1020.73 1020.58 1020.42 1020.25 1020.08 1019.93 1019.79 1019.66 1019.53 1019.37 1019.17 1018.93 1018.65 1018.33 1018.00 1017.67 1017.36 1017.07 1016.79 1016.53 1016.26 1015.98 1015.68 1015.35 1015.01 1014.66 1014.32 1013.98 1013.66 1013.36 1013.08 1012.83 1012.61 1012.43 1012.30 1012.22
1020.70 1020.82 1020.91 1020.97 1021.01 1021.01 1020.98 1020.89 1020.76 1020.60 1020.42 1020.24 1020.07 1019.93 1019.79 1019.65 1019.50 1019.32 1019.10 1018.84 1018.54 1018.21 1017.86 1017.52 1017.19 1016.87 1016.56 1016.25 1015.96 1015.65 1015.35 1015.04 1014.73 1014.41 1014.10 1013.79 1013.47 1013.17 1012.87 1012.60 1012.37 1012.19 1012.06
1020.61 1020.75 1020.87 1020.97 1021.05 1021.09 1021.08 1021.03 1020.92 1020.77 1020.59 1020.41 1020.22 1020.06 1019.91 1019.77 1019.62 1019.45 1019.25 1019.00 1018.70 1018.37 1018.02 1017.65 1017.29 1016.93 1016.59 1016.27 1015.97 1015.69 1015.41 1015.15 1014.89 1014.62 1014.34 1014.05 1013.73 1013.40 1013.07 1012.76 1012.47 1012.24 1012.06
1020.49 1020.65 1020.81 1020.94 1021.06 1021.14 1021.17 1021.15 1021.07 1020.93 1020.77 1020.58 1020.40 1020.22 1020.06 1019.90 1019.75 1019.57 1019.37 1019.12 1018.82 1018.49 1018.13 1017.75 1017.37 1017.00 1016.65 1016.34 1016.06 1015.81 1015.58 1015.38 1015.17 1014.96 1014.73 1014.46 1014.16 1013.82 1013.47 1013.12 1012.78 1012.50 1012.28
1020.35 1020.55 1020.73 1020.91 1021.06 1021.17 1021.24 1021.26 1021.21 1021.10 1020.96 1020.78 1020.60 1020.41 1020.24 1020.07 1019.89 1019.70 1019.47 1019.21 1018.91 1018.56 1018.19 1017.81 1017.43 1017.07 1016.75 1016.46 1016.23 1016.03 1015.87 1015.74 1015.61 1015.46 1015.27 1015.04 1014.76 1014.43 1014.07 1013.69 1013.33 1013.01 1012.73
1020.19 1020.43 1020.66 1020.86 1021.05 1021.20 1021.31 1021.36 1021.35 1021.28 1021.16 1021.01 1020.83 1020.65 1020.46 1020.27 1020.07 1019.85 1019.60 1019.31 1018.99 1018.63 1018.26 1017.88 1017.52 1017.18 1016.90 1016.66 1016.49 1016.36 1016.27 1016.21 1016.15 1016.06 1015.94 1015.75 1015.50 1015.20 1014.84 1014.46 1014.09 1013.74 1013.43
1020.00 1020.29 1020.56 1020.81 1021.03 1021.21 1021.35 1021.44 1021.47 1021.44 1021.36 1021.24 1021.09 1020.92 1020.73 1020.53 1020.31 1020.06 1019.77 1019.46 1019.11 1018.74 1018.36 1017.99 1017.65 1017.35 1017.11 1016.93 1016.82 1016.76 1016.74 1016.74 1016.75 1016.72 1016.65 1016.52 1016.32 1016.05 1015.73 1015.37 1015.00 1014.64 1014.32
1019.76 1020.11 1020.44 1020.73 1020.98 1021.20 1021.38 1021.50 1021.57 1021.58 1021.54 1021.46 1021.35 1021.20 1021.03 1020.83 1020.60 1020.33 1020.02 1019.68 1019.31 1018.93 1018.54 1018.18 1017.86 1017.59 1017.39 1017.26 1017.19 1017.18 1017.22 1017.27 1017.32 1017.35 1017.33 1017.25 1017.10 1016.89 1016.62 1016.31 1015.97 1015.63 1015.31
1019.48 1019.89 1020.27 1020.61 1020.91 1021.16 1021.37 1021.52 1021.63 1021.68 1021.68 1021.64 1021.57 1021.46 1021.32 1021.14 1020.92 1020.65 1020.34 1019.99 1019.61 1019.21 1018.82 1018.46 1018.15 1017.90 1017.72 1017.61 1017.57 1017.59 1017.64 1017.72 1017.79 1017.85 1017.88 1017.85 1017.77 1017.63 1017.43 1017.19 1016.91 1016.60 1016.29
1019.17 1019.63 1020.06 1020.45 1020.79 1021.08 1021.32 1021.50 1021.63 1021.71 1021.75 1021.76 1021.73 1021.67 1021.57 1021.43 1021.24 1021.00 1020.70 1020.36 1019.98 1019.58 1019.20 1018.84 1018.53 1018.27 1018.09 1017.98 1017.93 1017.93 1017.98 1018.05 1018.13 1018.20 1018.25 1018.28 1018.27 1018.20 1018.09 1017.93 1017.72 1017.47 1017.19
1018.83 1019.35 1019.83 1020.26 1020.64 1020.96 1021.22 1021.42 1021.57 1021.68 1021.75 1021.78 1021.80 1021.79 1021.74 1021.65 1021.51 1021.32 1021.06 1020.75 1020.39 1020.01 1019.63 1019.27 1018.95 1018.69 1018.48 1018.34 1018.25 1018.21 1018.22 1018.25 1018.31 1018.38 1018.45 1018.52 1018.57 1018.59 1018.57 1018.50 1018.37 1018.19 1017.96
1018.50 1019.05 1019.57 1020.05 1020.46 1020.81 1021.09 1021.31 1021.46 1021.58 1021.66 1021.72 1021.76 1021.79 1021.80 1021.77 1021.69 1021.56 1021.36 1021.10 1020.79 1020.45 1020.08 1019.73 1019.40 1019.11 1018.87 1018.68 1018.54 1018.45 1018.39 1018.37 1018.39 1018.44 1018.52 1018.61 1018.71 1018.80 1018.87 1018.89 1018.86 1018.75 1018.57
1018.19 1018.76 1019.31 1019.82 1020.27 1020.64 1020.93 1021.15 1021.31 1021.42 1021.50 1021.56 1021.62 1021.68 1021.73 1021.76 1021.75 1021.69 1021.57 1021.37 1021.12 1020.83 1020.50 1020.16 1019.83 1019.53 1019.26 1019.02 1018.83 1018.67 1018.55 1018.48 1018.44 1018.46 1018.52 1018.63 1018.77 1018.92 1019.05 1019.16 1019.20 1019.16 1019.03
1017.92 1018.49 1019.06 1019.59 1020.05 1020.44 1020.75 1020.97 1021.12 1021.21 1021.28 1021.34 1021.40 1021.48 1021.56 1021.63 1021.69 1021.69 1021.65 1021.53 1021.35 1021.12 1020.84 1020.54 1020.23 1019.92 1019.64 1019.37 1019.14 1018.93 1018.76 1018.63 1018.55 1018.53 1018.57 1018.67 1018.82 1019.00 1019.18 1019.34 1019.45 1019.46 1019.38
1017.68 1018.24 1018.80 1019.34 1019.82 1020.22 1020.53 1020.76 1020.90 1020.98 1021.03 1021.07 1021.13 1021.20 1021.30 1021.41 1021.51 1021.58 1021.60 1021.56 1021.46 1021.29 1021.08 1020.83 1020.56 1020.28 1020.00 1019.74 1019.49 1019.25 1019.05 1018.88 1018.76 1018.71 1018.72 1018.80 1018.93 1019.12 1019.32 1019.50 1019.64 1019.69 1019.65
1017.47 1017.99 1018.53 1019.07 1019.55 1019.96 1020.28 1020.51 1020.65 1020.72 1020.76 1020.78 1020.82 1020.89 1021.00 1021.12 1021.25 1021.37 1021.45 1021.48 1021.45 1021.36 1021.21 1021.03 1020.81 1020.58 1020.35 1020.11 1019.87 1019.65 1019.44 1019.26 1019.11 1019.02 1019.00 1019.04 1019.14 1019.30 1019.48 1019.65 1019.79 1019.86 1019.84
1017.26 1017.73 1018.24 1018.75 1019.23 1019.65 1019.97 1020.21 1020.35 1020.43 1020.46 1020.48 1020.51 1020.57 1020.68 1020.81 1020.97 1021.12 1021.24 1021.32 1021.35 1021.32 1021.25 1021.13 1020.99 1020.82 1020.65 1020.46 1020.27 1020.08 1019.89 1019.72 1019.57 1019.45 1019.39 1019.38 1019.43 1019.53 1019.66 1019.80 1019.91 1019.97 1019.95
Thickness
5742 5741 5736 5735 5735 5734 5734 5734 5734 5734 5733 5733 5733 5732 5732 5731 5731 5731 5731 5731 5731 5731 5731 5731 5731 5731 5731 5731 5730 5730 5729 5729 5728 5728 5727 5727 5727 5727 5726 5726 5726 5727 5725
5741 5738 5733 5732 5732 5731 5731 5730 5730 5730 5730 5730 5729 5729 5729 5728 5728 5728 5728 5728 5728 5728 5728 5728 5728 5728 5727 5727 5727 5727 5726 5725 5725 5725 5724 5724 5724 5723 5723 5723 5723 5724 5722
5737 5734 5730 5728 5728 5727 5727 5727 5726 5726 5726 5726 5726 5725 5725 5725 5725 5725 5724 5724 5724 5724 5724 5724 5724 5724 5724 5724 5723 5723 5723 5722 5722 5722 5722 5724 5723 5721 5720 5720 5719 5719 5718
5731 5730 5727 5724 5724 5723 5723 5723 5722 5723 5723 5723 5722 5722 5722 5721 5721 5721 5721 5721 5720 5720 5720 5720 5720 5720 5720 5720 5720 5719 5719 5719 5718 5719 5721 5722 5722 5718 5717 5717 5716 5716 5715
5725 5724 5722 5720 5719 5719 5719 5718 5718 5718 5719 5718 5718 5718 5717 5717 5717 5717 5717 5716 5716 5716 5716 5716 5716 5716 5716 5716 5716 5716 5715 5715 5715 5716 5718 5718 5718 5716 5714 5714 5713 5713 5712
5719 5719 5717 5715 5715 5714 5714 5714 5714 5714 5714 5714 5714 5713 5713 5713 5713 5712 5712 5712 5712 5712 5712 5712 5712 5712 5712 5712 5712 5712 5712 5712 5713 5715 5715 5715 5715 5712 5711 5711 5710 5710 5709
5713 5712 5711 5710 5710 5709 5709 5709 5709 5709 5709 5709 5709 5708 5708 5708 5708 5707 5707 5707 5707 5707 5707 5707 5707 5707 5707 5707 5707 5707 5707 5708 5710 5713 5712 5712 5711 5709 5708 5708 5707 5707 5706
5706 5706 5705 5704 5704 5704 5704 5704 5704 5703 5703 5703 5703 5703 5703 5703 5703 5702 5702 5702 5702 5702 5702 5702 5702 5702 5702 5702 5702 5703 5703 5703 5706 5708 5709 5708 5706 5705 5704 5704 5704 5703 5703
5698 5699 5699 5698 5698 5697 5697 5698 5698 5697 5697 5697 5697 5697 5697 5697 5697 5697 5697 5697 5697 5697 5697 5697 5697 5697 5697 5697 5698 5698 5698 5699 5702 5704 5704 5704 5702 5701 5701 5701 5700 5700 5700
5690 5691 5692 5692 5692 5692 5692 5691 5692 5692 5691 5691 5691 5691 5691 5691 5691 5691 5691 5691 5691 5691 5691 5692 5692 5692 5692 5693 5693 5693 5694 5695 5699 5699 5700 5700 5697 5697 5697 5697 5696 5696 5696
5681 5683 5684 5686 5686 5686 5687 5686 5686 5686 5685 5685 5686 5686 5686 5687 5688 5687 5685 5685 5685 5685 5686 5686 5686 5687 5688 5688 5689 5689 5690 5693 5695 5695 5694 5693 5692 5692 5692 5692 5692 5692 5691
5673 5674 5677 5679 5679 5680 5680 5680 5680 5680 5680 5681 5682 5681 5682 5682 5682 5681 5680 5680 5680 5680 5680 5681 5681 5682 5684 5686 5686 5685 5687 5688 5689 5690 5689 5687 5687 5687 5687 5687 5687 5687 5686
5666 5667 5669 5671 5672 5673 5673 5674 5674 5674 5675 5675 5676 5676 5676 5676 5676 5676 5676 5676 5675 5675 5676 5676 5677 5678 5679 5680 5681 5681 5682 5683 5684 5684 5683 5681 5680 5681 5681 5681 5681 5681 5681
5658 5659 5661 5663 5664 5665 5666 5667 5667 5668 5668 5669 5669 5669 5670 5670 5670 5670 5670 5670 5670 5670 5670 5671 5671 5673 5673 5674 5675 5676 5676 5676 5677 5677 5676 5674 5674 5674 5674 5675 5675 5675 5675
5650 5651 5652 5654 5656 5657 5658 5659 5660 5661 5661 5661 5661 5662 5662 5663 5663 5663 5663 5663 5663 5663 5664 5665 5666 5667 5667 5668 5668 5668 5669 5669 5669 5669 5669 5667 5667 5667 5667 5667 5668 5668 5668
5642 5643 5644 5646 5647 5649 5651 5652 5653 5653 5653 5654 5654 5654 5654 5655 5656 5656 5656 5656 5656 5656 5657 5658 5659 5659 5660 5661 5661 5661 5661 5662 5662 5662 5662 5661 5659 5659 5659 5660 5660 5660 5660
5633 5635 5636 5637 5638 5641 5642 5643 5645 5645 5646 5646 5645 5646 5647 5647 5648 5648 5648 5649 5649 5649 5651 5651 5652 5653 5653 5653 5654 5653 5654 5654 5654 5654 5653 5653 5652 5651 5650 5650 5651 5651 5651
5625 5627 5627 5629 5631 5633 5634 5635 5637 5638 5638 5638 5638 5638 5638 5639 5640 5640 5641 5641 5641 5642 5643 5644 5645 5646 5646 5646 5646 5646 5646 5646 5646 5645 5645 5644 5643 5643 5642 5641 5641 5641 5642
5618 5619 5619 5621 5623 5624 5625 5627 5628 5629 5629 5629 5629 5629 5629 5630 5631 5632 5633 5633 5634 5635 5636 5636 5637 5638 5638 5637 5637 5637 5638 5638 5637 5636 5635 5634 5633 5633 5633 5632 5632 5632 5632
5609 5611 5613 5613 5615 5616 5617 5619 5620 5621 5621 5621 5621 5621 5621 5622 5623 5624 5625 5625 5626 5627 5627 5628 5628 5628 5629 5628 5629 5629 5629 5629 5628 5627 5626 5625 5623 5623 5623 5623 5623 5623 5622
5602 5604 5605 5607 5607 5608 5610 5612 5613 5614 5613 5613 5612 5612 5613 5613 5614 5616 5617 5618 5618 5619 5619 5619 5620 5620 5620 5619 5620 5621 5621 5621 5620 5618 5616 5615 5614 5613 5612 5612 5612 5613 5613
5596 5597 5599 5599 5600 5601 5602 5603 5604 5604 5605 5605 5604 5604 5605 5606 5606 5607 5608 5610 5610 5610 5610 5610 5610 5611 5610 5609 5610 5612 5614 5614 5612 5608 5606 5605 5604 5603 5602 5602 5602 5602 5602
5590 5591 5592 5592 5593 5593 5593 5594 5595 5595 5596 5598 5598 5598 5598 5598 5598 5598 5599 5600 5600 5601 5602 5601 5601 5601 5602 5600 5599 5600 5603 5605 5601 5600 5597 5596 5594 5593 5592 5592 5591 5591 5591
5584 5584 5584 5585 5585 5586 5586 5587 5589 5590 5591 5591 5590 5590 5590 5590 5590 5590 5591 5591 5592 5592 5592 5592 5592 5591 5591 5591 5590 5587 5587 5588 5587 5590 5589 5586 5584 5582 5582 5581 5581 5581 5580
5577 5576 5577 5577 5577 5578 5578 5579 5580 5581 5581 5581 5581 5581 5581 5581 5581 5582 5582 5583 5583 5583 5582 5582 5582 5581 5581 5581 5580 5578 5576 5575 5575 5576 5580 5578 5575 5573 5571 5570 5570 5570 5570
5570 5569 5569 5570 5570 5570 5570 5571 5571 5572 5572 5572 5572 5573 5573 5573 5573 5573 5573 5573 5574 5573 5572 5572 5571 5571 5570 5569 5568 5567 5566 5566 5565 5564 5566 5566 5565 5564 5561 5560 5560 5559 5559